Location: Unspecified
(0.0000°N, 0.0000°E)
Time: 22:25:23
(UTC+00:00)

ISS - Pass Details

Date: 08 December 2025
Orbit: 416 x 421 km, 51.6° (Epoch: 08 December)

Event Time Altitude Azimuth Distance (km) Brightness Sun altitude
Rises 18:23:14 0° 296° (WNW) 2,342 0.7 -7.2°
Reaches altitude 10° 18:25:57 10° 272° (W) 1,483 0.2 -7.8°
Maximum altitude 18:27:58 15° 234° (SW) 1,208 -0.1 -8.3°
Drops below altitude 10° 18:30:01 10° 196° (SSW) 1,485 -0.4 -8.7°
Sets 18:32:45 0° 172° (S) 2,350 0.3 -9.4°
